This is the latest recevied weather packets stored in our database for station/object KN6CEI-13. If no packets are shown the sender has not sent any weather packets the latest 10 day(s).
| Time | Temp. | Humidity | Pressure | Rain* | Wind** | Luminosity | Snow |
|---|---|---|---|---|---|---|---|
| 1788148396 | 57° F | 82% | 761.8 mmHg | 0 in | - | 0 W/m² | - |
| 1788148096 | 57° F | 81% | 761.8 mmHg | 0 in | - | 0 W/m² | - |
| 1788147792 | 57° F | 81% | 761.6 mmHg | 0 in | - | 0 W/m² | - |
| 1788147487 | 57° F | 80% | 761.6 mmHg | 0 in | - | 0 W/m² | - |
| 1788147186 | 58° F | 80% | 761.6 mmHg | 0 in | - | 0 W/m² | - |
| 1788146882 | 58° F | 79% | 761.5 mmHg | 0 in | - | 0 W/m² | - |
| 1788146576 | 58° F | 79% | 761.8 mmHg | 0 in | - | 0 W/m² | - |
| 1788146272 | 58° F | 78% | 761.6 mmHg | 0 in | - | 0 W/m² | - |
| 1788145971 | 59° F | 78% | 761.7 mmHg | 0 in | - | 0 W/m² | - |
| 1788145666 | 59° F | 77% | 761.6 mmHg | 0 in | - | 0 W/m² | - |
| 1788145364 | 59° F | 76% | 761.6 mmHg | 0 in | - | 1 W/m² | - |
| 1788145064 | 59° F | 76% | 761.6 mmHg | 0 in | - | 3 W/m² | - |
| 1788144758 | 59° F | 75% | 761.6 mmHg | 0 in | - | 5 W/m² | - |
| 1788144454 | 60° F | 75% | 761.6 mmHg | 0 in | - | 8 W/m² | - |
| 1788144152 | 60° F | 74% | 761.6 mmHg | 0 in | - | 12 W/m² | - |
| 1788143852 | 61° F | 73% | 761.5 mmHg | 0 in | - | 16 W/m² | - |
| 1788143545 | 61° F | 72% | 761.7 mmHg | 0 in | - | 21 W/m² | - |
| 1788143240 | 61° F | 72% | 761.6 mmHg | 0 in | - | 25 W/m² | - |
| 1788142934 | 62° F | 71% | 761.6 mmHg | 0 in | - | 30 W/m² | - |
| 1788142634 | 62° F | 70% | 761.6 mmHg | 0 in | - | 34 W/m² | - |
| 1788142329 | 63° F | 69% | 761.6 mmHg | 0 in | - | 38 W/m² | - |
| 1788142025 | 63° F | 69% | 761.7 mmHg | 0 in | - | 42 W/m² | - |
| 1788141724 | 63° F | 68% | 761.5 mmHg | 0 in | - | 45 W/m² | - |
| 1788141421 | 64° F | 67% | 761.5 mmHg | 0 in | - | 48 W/m² | - |
| 1788141121 | 64° F | 67% | 761.5 mmHg | 0 in | - | 55 W/m² | - |
* Rain latest hour (hover to see other rain measurements)
** Current wind speed in m/s (hover to see current wind gust speed)